This is the latest recevied weather packets stored in our database for station/object KE8GJZ-2. If no packets are shown the sender has not sent any weather packets the latest 10 day(s).
| Time | Temp. | Humidity | Pressure | Rain* | Wind** | Luminosity | Snow |
|---|---|---|---|---|---|---|---|
| 1777682341 | 3.89° C | 64% | 1017.1 hPa | 0 mm | - | 3 W/m² | - |
| 1777682039 | 4.44° C | 64% | 1017 hPa | 0 mm | - | 6 W/m² | - |
| 1777681734 | 4.44° C | 66% | 1017.1 hPa | 0 mm | - | 9 W/m² | - |
| 1777681432 | 4.44° C | 64% | 1016.9 hPa | 0 mm | - | 11 W/m² | - |
| 1777681129 | 4.44° C | 63% | 1017.1 hPa | 0 mm | - | 15 W/m² | - |
| 1777680827 | 5° C | 64% | 1017 hPa | 0 mm | - | 18 W/m² | - |
| 1777680524 | 4.44° C | 62% | 1016.9 hPa | 0 mm | - | 22 W/m² | - |
| 1777680222 | 5° C | 61% | 1017 hPa | 0 mm | - | 26 W/m² | - |
| 1777679918 | 5° C | 59% | 1017 hPa | 0 mm | - | 30 W/m² | - |
| 1777679614 | 5° C | 61% | 1016.8 hPa | 0 mm | - | 32 W/m² | - |
| 1777679309 | 5° C | 66% | 1016.8 hPa | 0 mm | - | 38 W/m² | - |
| 1777679007 | 5° C | 64% | 1016.8 hPa | 0 mm | - | 41 W/m² | - |
| 1777678705 | 5.56° C | 67% | 1016.6 hPa | 0 mm | - | 42 W/m² | - |
| 1777678402 | 5.56° C | 65% | 1016.4 hPa | 0 mm | - | 42 W/m² | - |
| 1777678097 | 5.56° C | 64% | 1016.5 hPa | 0 mm | - | 42 W/m² | - |
| 1777677795 | 5.56° C | 60% | 1016.4 hPa | 0 mm | - | 46 W/m² | - |
| 1777677492 | 6.11° C | 64% | 1016.3 hPa | 0 mm | - | 46 W/m² | - |
| 1777677190 | 6.11° C | 61% | 1016.5 hPa | 0 mm | - | 46 W/m² | - |
| 1777676888 | 6.11° C | 61% | 1016.2 hPa | 0 mm | - | 47 W/m² | - |
| 1777676587 | 6.67° C | 61% | 1016.3 hPa | 0 mm | - | 49 W/m² | - |
| 1777676284 | 6.67° C | 61% | 1016.2 hPa | 0 mm | - | 100 W/m² | - |
| 1777675982 | 6.67° C | 59% | 1016.3 hPa | 0 mm | - | 150 W/m² | - |
| 1777675677 | 7.22° C | 57% | 1016.1 hPa | 0 mm | - | 157 W/m² | - |
| 1777675375 | 7.22° C | 58% | 1016.2 hPa | 0 mm | - | 172 W/m² | - |
| 1777675071 | 7.22° C | 56% | 1016.4 hPa | 0 mm | - | 194 W/m² | - |
* Rain latest hour (hover to see other rain measurements)
** Current wind speed in m/s (hover to see current wind gust speed)